Location: Gollag?dem
(16.8053°N, 80.8024°E)
Time: 14:24:16
(UTC+00:00)

ATLAS 5 CENTAUR R/B - Pass Details

Date: 13 August 2020
Orbit: 533 x 1125 km, 63.4° (Epoch: 19 September)

Event Time Altitude Azimuth Distance (km) Brightness Sun altitude
Rises 15:55:49 0° 314° (NW) 3,675 6.4 -38.6°
Reaches altitude 10° 15:58:43 10° 303° (WNW) 2,806 5.6 -39.1°
Enters shadow 16:03:48 27° 254° (WSW) 1,951 4.2 -40.1°
